TimeGMT,TemperatureF,Dew PointF,Humidity,Sea Level PressureIn,VisibilityMPH,Wind Direction,Wind SpeedMPH,Gust SpeedMPH,PrecipitationIn,Events,Conditions,WindDirDegrees,DateUTC
12:20 AM,44.6,37.4,76,29.62,6.2,West,19.6,-,N/A,,Scattered Clouds,260,2012-12-30 00:20:00
12:50 AM,44.6,37.4,76,29.62,6.2,WSW,20.7,-,N/A,Rain,Light Rain,250,2012-12-30 00:50:00
1:20 AM,41.0,37.4,87,29.65,6.2,West,16.1,-,N/A,,Scattered Clouds,270,2012-12-30 01:20:00
1:50 AM,44.6,37.4,76,29.65,6.2,West,20.7,-,N/A,,Scattered Clouds,260,2012-12-30 01:50:00
2:20 AM,42.8,39.2,87,29.68,6.2,West,21.9,-,N/A,,Scattered Clouds,270,2012-12-30 02:20:00
2:50 AM,44.6,37.4,76,29.68,6.2,West,24.2,-,N/A,,Scattered Clouds,260,2012-12-30 02:50:00
3:20 AM,44.6,37.4,76,29.68,6.2,West,20.7,-,N/A,,Partly Cloudy,260,2012-12-30 03:20:00
3:50 AM,42.8,39.2,87,29.71,6.2,West,18.4,-,N/A,Rain,Rain,260,2012-12-30 03:50:00
4:20 AM,44.6,37.4,76,29.71,6.2,West,16.1,-,N/A,,Partly Cloudy,260,2012-12-30 04:20:00
4:50 AM,42.8,39.2,87,29.74,6.2,West,16.1,-,N/A,,Scattered Clouds,270,2012-12-30 04:50:00
5:20 AM,42.8,39.2,87,29.74,6.2,West,13.8,-,N/A,,Partly Cloudy,270,2012-12-30 05:20:00
5:50 AM,46.4,39.2,76,29.74,6.2,West,20.7,-,N/A,,Scattered Clouds,270,2012-12-30 05:50:00
6:20 AM,46.4,39.2,76,29.74,6.2,West,20.7,-,N/A,,Scattered Clouds,260,2012-12-30 06:20:00
6:50 AM,39.2,35.6,87,29.77,-9999.0,WNW,20.7,35.7,N/A,Rain-Thunderstorm,Thunderstorms and Rain,290,2012-12-30 06:50:00
7:20 AM,44.6,39.2,81,29.74,6.2,West,20.7,32.2,N/A,,Scattered Clouds,260,2012-12-30 07:20:00
7:50 AM,46.4,39.2,76,29.77,6.2,West,21.9,34.5,N/A,,Mostly Cloudy,260,2012-12-30 07:50:00
8:20 AM,46.4,39.2,76,29.77,6.2,West,21.9,-,N/A,Rain,Rain Showers,260,2012-12-30 08:20:00
8:50 AM,46.4,41.0,81,29.80,5.0,West,15.0,26.5,N/A,Rain,Rain Showers,260,2012-12-30 08:50:00
9:20 AM,46.4,41.0,81,29.80,6.2,West,18.4,-,N/A,,Mostly Cloudy,260,2012-12-30 09:20:00
9:50 AM,46.4,42.8,87,29.80,6.2,West,18.4,-,N/A,,Scattered Clouds,260,2012-12-30 09:50:00
10:20 AM,46.4,42.8,87,29.83,6.2,West,19.6,-,N/A,,Mostly Cloudy,260,2012-12-30 10:20:00
10:50 AM,46.4,41.0,81,29.83,6.2,West,18.4,32.2,N/A,,Mostly Cloudy,260,2012-12-30 10:50:00
11:20 AM,48.2,42.8,82,29.83,6.2,West,18.4,-,N/A,,Scattered Clouds,260,2012-12-30 11:20:00
11:50 AM,48.2,42.8,82,29.83,3.7,West,21.9,38.0,N/A,Rain,Rain Showers,270,2012-12-30 11:50:00
12:20 PM,48.2,44.6,87,29.83,6.2,West,19.6,-,N/A,Rain,Rain Showers,270,2012-12-30 12:20:00
12:50 PM,48.2,42.8,82,29.83,6.2,West,21.9,33.4,N/A,,Scattered Clouds,260,2012-12-30 12:50:00
1:20 PM,50.0,44.6,82,29.83,6.2,West,23.0,-,N/A,,Mostly Cloudy,260,2012-12-30 13:20:00
1:50 PM,48.2,44.6,87,29.83,6.2,West,23.0,-,N/A,,Mostly Cloudy,260,2012-12-30 13:50:00
2:20 PM,50.0,44.6,82,29.83,6.2,West,21.9,-,N/A,,Scattered Clouds,260,2012-12-30 14:20:00
2:50 PM,50.0,44.6,82,29.86,6.2,West,21.9,-,N/A,Rain,Light Rain,260,2012-12-30 14:50:00
3:20 PM,50.0,44.6,82,29.86,6.2,WSW,19.6,-,N/A,,Scattered Clouds,250,2012-12-30 15:20:00
3:50 PM,50.0,44.6,82,29.86,6.2,WSW,18.4,-,N/A,,Scattered Clouds,250,2012-12-30 15:50:00
4:20 PM,50.0,44.6,82,29.89,6.2,WSW,18.4,-,N/A,,Scattered Clouds,250,2012-12-30 16:20:00
4:50 PM,50.0,44.6,82,29.89,6.2,WSW,19.6,-,N/A,,Scattered Clouds,250,2012-12-30 16:50:00
5:20 PM,50.0,44.6,82,29.86,6.2,WSW,18.4,-,N/A,,Mostly Cloudy,250,2012-12-30 17:20:00
5:50 PM,50.0,46.4,87,29.86,6.2,WSW,17.3,-,N/A,,Mostly Cloudy,250,2012-12-30 17:50:00
6:20 PM,50.0,46.4,87,29.86,6.2,WSW,19.6,-,N/A,,Mostly Cloudy,250,2012-12-30 18:20:00
6:50 PM,50.0,46.4,87,29.86,6.2,WSW,20.7,-,N/A,,Scattered Clouds,250,2012-12-30 18:50:00
7:20 PM,50.0,46.4,87,29.86,6.2,WSW,17.3,-,N/A,,Scattered Clouds,250,2012-12-30 19:20:00
7:50 PM,51.8,46.4,82,29.86,6.2,WSW,20.7,-,N/A,,Mostly Cloudy,250,2012-12-30 19:50:00
8:20 PM,50.0,46.4,87,29.86,6.2,WSW,18.4,-,N/A,,Scattered Clouds,250,2012-12-30 20:20:00
8:50 PM,51.8,46.4,82,29.86,6.2,WSW,18.4,-,N/A,,Scattered Clouds,250,2012-12-30 20:50:00
9:20 PM,51.8,46.4,82,29.86,6.2,WSW,19.6,-,N/A,,Mostly Cloudy,250,2012-12-30 21:20:00
9:50 PM,51.8,46.4,82,29.83,6.2,WSW,18.4,-,N/A,,Mostly Cloudy,250,2012-12-30 21:50:00
10:20 PM,51.8,46.4,82,29.83,6.2,WSW,20.7,-,N/A,,Scattered Clouds,250,2012-12-30 22:20:00
10:50 PM,50.0,46.4,87,29.83,6.2,WSW,16.1,-,N/A,,Mostly Cloudy,240,2012-12-30 22:50:00
11:20 PM,50.0,46.4,87,29.83,6.2,WSW,15.0,-,N/A,,Mostly Cloudy,240,2012-12-30 23:20:00
11:50 PM,50.0,46.4,87,29.80,6.2,WSW,17.3,-,N/A,,Mostly Cloudy,240,2012-12-30 23:50:00